WBANNO,USDM_WEEK,LONGITUDE,LATITUDE,SMVWC_5_CM_MEAN,SMANOM_5_CM_MEAN,SMPERC_5_CM_30COUNTS,SMPERC_5_CM_70COUNTS,SMVWC_10_CM_MEAN,SMANOM_10_CM_MEAN,SMPERC_10_CM_30COUNTS,SMPERC_10_CM_70COUNTS,SMVWC_20_CM_MEAN,SMANOM_20_CM_MEAN,SMPERC_20_CM_30COUNTS,SMPERC_20_CM_70COUNTS,SMVWC_50_CM_MEAN,SMANOM_50_CM_MEAN,SMPERC_50_CM_30COUNTS,SMPERC_50_CM_70COUNTS,SMVWC_100_CM_MEAN,SMANOM_100_CM_MEAN,SMPERC_100_CM_30COUNTS,SMPERC_100_CM_70COUNTS,SMVWC_TOP_CM_MEAN,SMANOM_TOP_CM_MEAN,SMPERC_TOP_CM_30COUNTS,SMPERC_TOP_CM_70COUNTS,SMVWC_COLUMN_CM_MEAN,SMANOM_COLUMN_CM_MEAN,SMPERC_COLUMN_CM_30COUNTS,SMPERC_COLUMN_CM_70COUNTS
53155,20100419,-112.34,35.76,,,,,,,,,,,,,,,,,,,,,,,,,,,,
53155,20100420,-112.34,35.76,,,,,,,,,,,,,,,,,,,,,,,,,,,,
53155,20100421,-112.34,35.76,,,,,,,,,,,,,,,,,,,,,,,,,,,,
53155,20100422,-112.34,35.76,,,,,,,,,,,,,,,,,,,,,,,,,,,,
53155,20100423,-112.34,35.76,,,,,,,,,,,,,,,,,,,,,,,,,,,,
53155,20100424,-112.34,35.76,,,,,,,,,,,,,,,,,,,,,,,,,,,,
53155,20100425,-112.34,35.76,0.142,0.47,0,0.543,0.169,0.23,0,0.013,,,,,,,,,,,,,0.156,0.36,0,0.126,,,,
53155,20100426,-112.34,35.76,0.144,0.52,0,0.639,0.17,0.27,0,0.102,,,,,,,,,,,,,0.157,0.41,0,0.259,,,,
53155,20100427,-112.34,35.76,0.145,0.58,0,0.768,0.171,0.31,0,0.238,,,,,,,,,,,,,0.158,0.48,0,0.399,,,,
53155,20100428,-112.34,35.76,0.146,0.62,0,0.827,0.171,0.35,0,0.381,,,,,,,,,,,,,0.158,0.53,0,0.542,,,,
53155,20100429,-112.34,35.76,0.147,0.67,0,0.958,0.172,0.4,0,0.524,,,,,,,,,,,,,0.159,0.59,0,0.685,,,,
53155,20100430,-112.34,35.76,0.146,0.68,0,0.988,0.172,0.45,0,0.577,,,,,,,,,,,,,0.159,0.62,0,0.821,,,,
53155,20100501,-112.34,35.76,0.145,0.68,0,0.988,0.172,0.48,0,0.667,,,,,,,,,,,,,0.159,0.64,0,0.946,,,,
53155,20100502,-112.34,35.76,0.144,0.67,0,0.988,0.172,0.5,0,0.792,,,,,,,,,,,,,0.158,0.64,0,0.976,,,,
53155,20100503,-112.34,35.76,0.141,0.65,0,0.988,0.171,0.51,0,0.845,,,,,,,,,,,,,0.156,0.63,0,0.976,,,,
53155,20100504,-112.34,35.76,0.139,0.64,0,0.988,0.17,0.52,0,0.851,,,,,,,,,,,,,0.155,0.62,0,0.976,,,,
53155,20100505,-112.34,35.76,0.138,0.64,0,0.988,0.169,0.54,0,0.851,,,,,,,,,,,,,0.153,0.62,0,0.976,,,,
53155,20100506,-112.34,35.76,0.136,0.64,0,0.988,0.169,0.56,0,0.851,,,,,,,,,,,,,0.152,0.62,0,0.976,,,,
53155,20100507,-112.34,35.76,0.135,0.65,0,1,0.169,0.6,0,0.94,,,,,,,,,,,,,0.152,0.64,0,0.982,,,,
53155,20100508,-112.34,35.76,0.134,0.66,0,1,0.169,0.63,0,0.994,,,,,,,,,,,,,0.152,0.65,0,1,,,,
53155,20100509,-112.34,35.76,0.132,0.65,0,1,0.169,0.66,0,1,,,,,,,,,,,,,0.151,0.66,0,1,,,,
53155,20100510,-112.34,35.76,0.13,0.64,0,1,0.169,0.68,0,1,,,,,,,,,,,,,0.15,0.66,0,1,,,,
53155,20100511,-112.34,35.76,0.128,0.62,0,1,0.168,0.68,0,1,,,,,,,,,,,,,0.148,0.65,0,1,,,,
53155,20100512,-112.34,35.76,0.125,0.59,0,0.988,0.167,0.67,0,1,,,,,,,,,,,,,0.146,0.62,0,1,,,,
53155,20100513,-112.34,35.76,0.123,0.56,0,0.988,0.165,0.65,0,1,,,,,,,,,,,,,0.144,0.6,0,1,,,,
53155,20100514,-112.34,35.76,0.121,0.54,0,0.988,0.164,0.64,0,1,,,,,,,,,,,,,0.143,0.58,0,1,,,,
53155,20100515,-112.34,35.76,0.12,0.53,0,0.988,0.163,0.64,0,1,,,,,,,,,,,,,0.141,0.58,0,1,,,,
53155,20100516,-112.34,35.76,0.118,0.52,0,0.988,0.162,0.65,0,1,,,,,,,,,,,,,0.14,0.57,0,1,,,,
53155,20100517,-112.34,35.76,0.117,0.51,0,0.988,0.161,0.66,0,1,,,,,,,,,,,,,0.139,0.57,0,1,,,,
53155,20100518,-112.34,35.76,0.115,0.49,0,0.935,0.16,0.67,0,1,,,,,,,,,,,,,0.138,0.56,0,1,,,,
53155,20100519,-112.34,35.76,0.114,0.48,0,0.851,0.16,0.68,0,1,,,,,,,,,,,,,0.137,0.56,0,1,,,,
53155,20100520,-112.34,35.76,0.112,0.46,0,0.774,0.16,0.7,0,1,,,,,,,,,,,,,0.136,0.55,0,1,,,,
53155,20100521,-112.34,35.76,0.11,0.43,0,0.679,0.159,0.71,0,1,,,,,,,,,,,,,0.134,0.55,0,1,,,,
53155,20100522,-112.34,35.76,0.107,0.4,0,0.536,0.158,0.72,0,1,,,,,,,,,,,,,0.133,0.53,0,1,,,,
53155,20100523,-112.34,35.76,0.104,0.35,0,0.393,0.157,0.71,0,1,,,,,,,,,,,,,0.131,0.5,0,1,,,,
53155,20100524,-112.34,35.76,0.101,0.31,0,0.25,0.155,0.69,0,1,,,,,,,,,,,,,0.128,0.46,0,0.976,,,,
53155,20100525,-112.34,35.76,0.099,0.29,0,0.161,0.154,0.67,0,1,,,,,,,,,,,,,0.126,0.44,0,0.976,,,,
53155,20100526,-112.34,35.76,0.096,0.27,0,0.113,0.153,0.66,0,1,,,,,,,,,,,,,0.125,0.42,0,0.976,,,,
53155,20100527,-112.34,35.76,0.094,0.24,0,0.048,0.151,0.64,0,1,,,,,,,,,,,,,0.123,0.41,0,0.976,,,,
53155,20100528,-112.34,35.76,0.091,0.22,0,0,0.15,0.63,0,1,,,,,,,,,,,,,0.121,0.39,0,0.976,,,,
53155,20100529,-112.34,35.76,0.089,0.21,0,0,0.149,0.61,0,1,,,,,,,,,,,,,0.119,0.38,0,0.976,,,,
53155,20100530,-112.34,35.76,0.086,0.2,0,0,0.147,0.6,0,1,,,,,,,,,,,,,0.117,0.38,0,0.97,,,,
53155,20100531,-112.34,35.76,0.084,0.19,0,0,0.146,0.6,0,1,,,,,,,,,,,,,0.115,0.37,0,0.982,,,,
53155,20100601,-112.34,35.76,0.082,0.17,0,0,0.145,0.6,0,1,,,,,,,,,,,,,0.114,0.37,0,0.94,,,,
53155,20100602,-112.34,35.76,0.079,0.14,0,0,0.144,0.59,0,1,,,,,,,,,,,,,0.111,0.35,0,0.804,,,,
53155,20100603,-112.34,35.76,0.076,0.12,0,0,0.143,0.59,0,1,,,,,,,,,,,,,0.11,0.34,0,0.708,,,,
53155,20100604,-112.34,35.76,0.074,0.09,0,0,0.141,0.59,0,1,,,,,,,,,,,,,0.108,0.32,0,0.589,,,,
53155,20100605,-112.34,35.76,0.071,0.06,0,0,0.14,0.59,0,1,,,,,,,,,,,,,0.106,0.3,0,0.494,,,,
53155,20100606,-112.34,35.76,0.069,0.03,0,0,0.139,0.59,0,1,,,,,,,,,,,,,0.104,0.29,0,0.393,,,,
53155,20100607,-112.34,35.76,0.067,0,0,0,0.137,0.59,0,1,,,,,,,,,,,,,0.102,0.28,0,0.292,,,,
53155,20100608,-112.34,35.76,0.065,-0.03,0.03,0,0.136,0.59,0,1,,,,,,,,,,,,,0.1,0.25,0,0.19,,,,
53155,20100609,-112.34,35.76,0.063,-0.05,0.065,0.012,0.134,0.57,0,1,,,,,,,,,,,,,0.099,0.24,0,0.196,,,,
53155,20100610,-112.34,35.76,0.061,-0.08,0.119,0.012,0.132,0.55,0,1,,,,,,,,,,,,,0.097,0.22,0,0.149,,,,
53155,20100611,-112.34,35.76,0.06,-0.1,0.167,0.03,0.13,0.51,0,0.988,,,,,,,,,,,,,0.095,0.2,0,0.143,,,,
53155,20100612,-112.34,35.76,0.059,-0.09,0.196,0.071,0.128,0.46,0,0.875,,,,,,,,,,,,,0.093,0.18,0,0.137,,,,
53155,20100613,-112.34,35.76,0.057,-0.1,0.22,0.125,0.125,0.39,0,0.732,,,,,,,,,,,,,0.091,0.15,0,0.125,,,,
53155,20100614,-112.34,35.76,0.057,-0.1,0.232,0.137,0.122,0.33,0,0.589,,,,,,,,,,,,,0.089,0.13,0,0.095,,,,
53155,20100615,-112.34,35.76,0.057,-0.03,0.202,0.214,0.119,0.28,0,0.446,,,,,,,,,,,,,0.088,0.15,0,0.196,,,,
53155,20100616,-112.34,35.76,0.059,0.06,0.167,0.315,0.118,0.26,0,0.393,,,,,,,,,,,,,0.088,0.19,0,0.321,,,,
53155,20100617,-112.34,35.76,0.06,0.15,0.113,0.435,0.116,0.25,0,0.369,,,,,,,,,,,,,0.088,0.24,0,0.464,,,,
53155,20100618,-112.34,35.76,0.061,0.22,0.065,0.512,0.115,0.26,0,0.381,,,,,,,,,,,,,0.088,0.28,0,0.589,,,,
53155,20100619,-112.34,35.76,0.061,0.27,0.036,0.548,0.114,0.29,0,0.494,,,,,,,,,,,,,0.088,0.32,0,0.69,,,,
53155,20100620,-112.34,35.76,0.062,0.35,0.012,0.583,0.114,0.34,0,0.637,,,,,,,,,,,,,0.088,0.39,0,0.81,,,,
53155,20100621,-112.34,35.76,0.064,0.46,0,0.702,0.114,0.4,0,0.78,,,,,,,,,,,,,0.089,0.47,0,0.952,,,,
53155,20100622,-112.34,35.76,0.064,0.5,0,0.738,0.114,0.44,0,0.923,,,,,,,,,,,,,0.089,0.51,0,0.994,,,,
53155,20100623,-112.34,35.76,0.063,0.49,0,0.732,0.113,0.47,0,0.976,,,,,,,,,,,,,0.088,0.51,0,0.994,,,,
53155,20100624,-112.34,35.76,0.062,0.49,0.006,0.702,0.113,0.49,0,1,,,,,,,,,,,,,0.087,0.52,0,0.988,,,,
53155,20100625,-112.34,35.76,0.061,0.49,0.012,0.685,0.112,0.5,0,1,,,,,,,,,,,,,0.087,0.52,0,0.97,,,,
53155,20100626,-112.34,35.76,0.061,0.5,0.012,0.696,0.111,0.49,0,1,,,,,,,,,,,,,0.086,0.52,0,0.917,,,,
53155,20100627,-112.34,35.76,0.06,0.47,0.018,0.685,0.11,0.48,0,1,,,,,,,,,,,,,0.085,0.49,0,0.869,,,,
53155,20100628,-112.34,35.76,0.059,0.4,0.024,0.631,0.109,0.47,0,1,,,,,,,,,,,,,0.084,0.46,0,0.804,,,,
53155,20100629,-112.34,35.76,0.058,0.35,0.024,0.595,0.108,0.45,0,1,,,,,,,,,,,,,0.083,0.42,0,0.744,,,,
53155,20100630,-112.34,35.76,0.056,0.29,0.042,0.548,0.107,0.42,0,0.988,,,,,,,,,,,,,0.082,0.38,0,0.679,,,,
53155,20100701,-112.34,35.76,0.055,0.23,0.054,0.512,0.106,0.39,0,0.905,,,,,,,,,,,,,0.08,0.33,0,0.607,,,,
53155,20100702,-112.34,35.76,0.054,0.18,0.054,0.452,0.104,0.35,0,0.762,,,,,,,,,,,,,0.079,0.28,0,0.506,,,,
53155,20100703,-112.34,35.76,0.053,0.13,0.054,0.375,0.103,0.31,0,0.619,,,,,,,,,,,,,0.078,0.23,0,0.423,,,,
53155,20100704,-112.34,35.76,0.052,0.09,0.054,0.298,0.101,0.26,0,0.476,,,,,,,,,,,,,0.077,0.17,0,0.327,,,,
53155,20100705,-112.34,35.76,0.051,0.04,0.06,0.226,0.099,0.2,0,0.333,,,,,,,,,,,,,0.075,0.11,0,0.256,,,,
53155,20100706,-112.34,35.76,0.05,0,0.06,0.149,0.098,0.15,0,0.19,,,,,,,,,,,,,0.074,0.06,0,0.173,,,,
53155,20100707,-112.34,35.76,0.05,-0.02,0.048,0.089,0.097,0.11,0,0.06,,,,,,,,,,,,,0.073,0.02,0,0.101,,,,
53155,20100708,-112.34,35.76,0.05,-0.05,0.054,0.036,0.095,0.06,0,0,,,,,,,,,,,,,0.072,-0.02,0,0.036,,,,
53155,20100709,-112.34,35.76,0.049,-0.07,0.083,0.018,0.094,0.01,0,0,,,,,,,,,,,,,0.072,-0.06,0,0.012,,,,
53155,20100710,-112.34,35.76,0.049,-0.09,0.101,0.006,0.093,-0.03,0,0,,,,,,,,,,,,,0.071,-0.1,0.006,0.006,,,,
53155,20100711,-112.34,35.76,0.048,-0.12,0.149,0.006,0.092,-0.07,0,0,,,,,,,,,,,,,0.07,-0.13,0.018,0.006,,,,
53155,20100712,-112.34,35.76,0.047,-0.14,0.167,0,0.091,-0.1,0,0,,,,,,,,,,,,,0.069,-0.15,0.03,0,,,,
53155,20100713,-112.34,35.76,0.047,-0.16,0.25,0,0.09,-0.14,0,0,,,,,,,,,,,,,0.069,-0.17,0.054,0,,,,
53155,20100714,-112.34,35.76,0.047,-0.18,0.327,0,0.089,-0.17,0,0,,,,,,,,,,,,,0.068,-0.2,0.137,0,,,,
53155,20100715,-112.34,35.76,0.046,-0.21,0.381,0,0.089,-0.19,0.018,0,,,,,,,,,,,,,0.068,-0.22,0.214,0,,,,
53155,20100716,-112.34,35.76,0.046,-0.24,0.423,0,0.088,-0.21,0.024,0,,,,,,,,,,,,,0.067,-0.25,0.31,0,,,,
53155,20100717,-112.34,35.76,0.046,-0.27,0.488,0,0.088,-0.23,0.089,0,,,,,,,,,,,,,0.067,-0.27,0.44,0,,,,
53155,20100718,-112.34,35.76,0.046,-0.29,0.536,0,0.087,-0.24,0.173,0,,,,,,,,,,,,,0.067,-0.3,0.571,0,,,,
53155,20100719,-112.34,35.76,0.046,-0.32,0.619,0,0.087,-0.25,0.268,0,,,,,,,,,,,,,0.066,-0.33,0.702,0,,,,
53155,20100720,-112.34,35.76,0.045,-0.35,0.679,0,0.086,-0.26,0.411,0,,,,,,,,,,,,,0.066,-0.36,0.821,0,,,,
53155,20100721,-112.34,35.76,0.051,-0.3,0.661,0.054,0.085,-0.29,0.554,0,,,,,,,,,,,,,0.068,-0.34,0.804,0,,,,
53155,20100722,-112.34,35.76,0.065,-0.18,0.583,0.185,0.085,-0.3,0.679,0,,,,,,,,,,,,,0.075,-0.28,0.726,0,,,,
53155,20100723,-112.34,35.76,0.078,-0.07,0.506,0.196,0.085,-0.31,0.81,0,,,,,,,,,,,,,0.082,-0.21,0.631,0,,,,
53155,20100724,-112.34,35.76,0.09,0.02,0.423,0.196,0.087,-0.31,0.804,0,,,,,,,,,,,,,0.089,-0.15,0.494,0,,,,
53155,20100725,-112.34,35.76,0.102,0.11,0.321,0.196,0.089,-0.3,0.744,0,,,,,,,,,,,,,0.095,-0.1,0.351,0,,,,
53155,20100726,-112.34,35.76,0.113,0.19,0.208,0.196,0.092,-0.28,0.655,0,,,,,,,,,,,,,0.102,-0.04,0.208,0,,,,
53155,20100727,-112.34,35.76,0.123,0.26,0.065,0.196,0.095,-0.26,0.512,0,,,,,,,,,,,,,0.109,0.01,0.065,0,,,,
53155,20100728,-112.34,35.76,0.126,0.26,0,0.143,0.098,-0.23,0.369,0,,,,,,,,,,,,,0.112,0.03,0,0,,,,
53155,20100729,-112.34,35.76,0.122,0.18,0,0.012,0.102,-0.2,0.226,0,,,,,,,,,,,,,0.112,0,0,0,,,,
53155,20100730,-112.34,35.76,0.119,0.12,0,0,0.104,-0.19,0.119,0,,,,,,,,,,,,,0.111,-0.03,0,0,,,,
53155,20100731,-112.34,35.76,0.117,0.08,0,0.006,0.106,-0.18,0.071,0,,,,,,,,,,,,,0.112,-0.05,0,0.006,,,,
53155,20100801,-112.34,35.76,0.131,0.23,0,0.149,0.123,0.01,0.048,0.137,,,,,,,,,,,,,0.127,0.14,0,0.149,,,,
53155,20100802,-112.34,35.76,0.142,0.33,0,0.292,0.139,0.18,0.042,0.28,,,,,,,,,,,,,0.14,0.28,0,0.292,,,,
53155,20100803,-112.34,35.76,0.151,0.44,0,0.435,0.153,0.34,0.042,0.423,,,,,,,,,,,,,0.152,0.42,0,0.435,,,,
53155,20100804,-112.34,35.76,0.159,0.53,0,0.577,0.165,0.48,0.042,0.565,,,,,,,,,,,,,0.162,0.53,0,0.577,,,,
53155,20100805,-112.34,35.76,0.166,0.61,0,0.72,0.176,0.61,0.042,0.708,,,,,,,,,,,,,0.171,0.64,0,0.72,,,,
53155,20100806,-112.34,35.76,0.172,0.69,0,0.863,0.186,0.73,0.012,0.851,,,,,,,,,,,,,0.179,0.74,0,0.863,,,,
53155,20100807,-112.34,35.76,0.176,0.74,0,1,0.195,0.84,0,0.994,,,,,,,,,,,,,0.186,0.83,0,1,,,,
53155,20100808,-112.34,35.76,0.169,0.68,0,0.988,0.187,0.74,0,0.875,,,,,,,,,,,,,0.178,0.73,0,0.994,,,,
53155,20100809,-112.34,35.76,0.166,0.66,0,0.988,0.181,0.66,0,0.798,,,,,,,,,,,,,0.173,0.68,0,0.994,,,,
53155,20100810,-112.34,35.76,0.164,0.64,0,0.988,0.176,0.59,0,0.673,,,,,,,,,,,,,0.17,0.63,0,0.994,,,,
53155,20100811,-112.34,35.76,0.162,0.63,0,0.988,0.172,0.54,0,0.53,,,,,,,,,,,,,0.167,0.6,0,0.994,,,,
53155,20100812,-112.34,35.76,0.16,0.61,0,0.988,0.168,0.49,0,0.387,,,,,,,,,,,,,0.164,0.57,0,0.964,,,,
53155,20100813,-112.34,35.76,0.158,0.6,0,0.952,0.165,0.44,0,0.244,,,,,,,,,,,,,0.162,0.53,0,0.833,,,,
53155,20100814,-112.34,35.76,0.155,0.57,0,0.821,0.162,0.39,0,0.101,,,,,,,,,,,,,0.159,0.5,0,0.69,,,,
53155,20100815,-112.34,35.76,0.149,0.49,0,0.69,0.16,0.36,0,0.083,,,,,,,,,,,,,0.154,0.43,0,0.554,,,,
53155,20100816,-112.34,35.76,0.141,0.4,0,0.548,0.157,0.31,0,0.018,,,,,,,,,,,,,0.149,0.36,0,0.411,,,,
53155,20100817,-112.34,35.76,0.134,0.32,0,0.405,0.153,0.25,0,0,,,,,,,,,,,,,0.144,0.29,0,0.268,,,,
53155,20100818,-112.34,35.76,0.128,0.25,0,0.262,0.15,0.2,0,0,,,,,,,,,,,,,0.139,0.23,0,0.125,,,,
53155,20100819,-112.34,35.76,0.123,0.17,0,0.119,0.146,0.14,0,0,,,,,,,,,,,,,0.134,0.16,0,0.012,,,,
53155,20100820,-112.34,35.76,0.119,0.13,0,0.012,0.143,0.09,0,0,,,,,,,,,,,,,0.131,0.12,0,0,,,,
53155,20100821,-112.34,35.76,0.117,0.13,0,0,0.141,0.06,0,0,,,,,,,,,,,,,0.129,0.1,0,0,,,,
53155,20100822,-112.34,35.76,0.117,0.13,0,0,0.139,0.03,0,0,,,,,,,,,,,,,0.128,0.09,0,0,,,,
53155,20100823,-112.34,35.76,0.116,0.13,0,0,0.137,0,0,0,,,,,,,,,,,,,0.126,0.08,0,0,,,,
53155,20100824,-112.34,35.76,0.115,0.14,0,0,0.136,-0.01,0,0,,,,,,,,,,,,,0.125,0.08,0,0,,,,
53155,20100825,-112.34,35.76,0.114,0.14,0,0,0.134,-0.03,0,0,,,,,,,,,,,,,0.124,0.07,0,0,,,,
53155,20100826,-112.34,35.76,0.112,0.13,0,0,0.133,-0.04,0,0,,,,,,,,,,,,,0.123,0.06,0,0,,,,
53155,20100827,-112.34,35.76,0.109,0.09,0,0,0.132,-0.05,0,0,,,,,,,,,,,,,0.12,0.03,0,0,,,,
53155,20100828,-112.34,35.76,0.104,0.02,0,0,0.131,-0.07,0,0,,,,,,,,,,,,,0.117,-0.02,0,0,,,,
53155,20100829,-112.34,35.76,0.099,-0.07,0.024,0,0.129,-0.1,0,0,,,,,,,,,,,,,0.114,-0.08,0,0,,,,
53155,20100830,-112.34,35.76,0.094,-0.14,0.137,0,0.127,-0.12,0,0,,,,,,,,,,,,,0.111,-0.13,0.006,0,,,,
53155,20100831,-112.34,35.76,0.089,-0.21,0.28,0,0.125,-0.16,0,0,,,,,,,,,,,,,0.107,-0.19,0.071,0,,,,
53155,20100901,-112.34,35.76,0.085,-0.28,0.423,0,0.124,-0.18,0,0,,,,,,,,,,,,,0.105,-0.24,0.185,0,,,,
53155,20100902,-112.34,35.76,0.082,-0.34,0.565,0,0.122,-0.21,0,0,,,,,,,,,,,,,0.102,-0.29,0.327,0,,,,
53155,20100903,-112.34,35.76,0.079,-0.39,0.696,0,0.121,-0.23,0.006,0,,,,,,,,,,,,,0.1,-0.33,0.458,0,,,,
53155,20100904,-112.34,35.76,0.077,-0.43,0.827,0,0.12,-0.24,0.006,0,,,,,,,,,,,,,0.098,-0.37,0.589,0,,,,
53155,20100905,-112.34,35.76,0.075,-0.47,0.935,0,0.119,-0.26,0.012,0,,,,,,,,,,,,,0.097,-0.4,0.72,0,,,,
53155,20100906,-112.34,35.76,0.073,-0.49,0.917,0,0.118,-0.27,0.119,0,,,,,,,,,,,,,0.096,-0.42,0.815,0,,,,
53155,20100907,-112.34,35.76,0.072,-0.5,0.881,0,0.117,-0.27,0.25,0,,,,,,,,,,,,,0.095,-0.44,0.881,0,,,,
53155,20100908,-112.34,35.76,0.07,-0.53,0.881,0,0.116,-0.29,0.393,0,,,,,,,,,,,,,0.093,-0.47,0.911,0,,,,
53155,20100909,-112.34,35.76,0.069,-0.54,0.881,0,0.114,-0.31,0.536,0,,,,,,,,,,,,,0.092,-0.49,0.911,0,,,,
53155,20100910,-112.34,35.76,0.069,-0.55,0.893,0,0.113,-0.34,0.673,0,,,,,,,,,,,,,0.091,-0.51,0.923,0,,,,
53155,20100911,-112.34,35.76,0.068,-0.55,0.905,0,0.111,-0.36,0.815,0,,,,,,,,,,,,,0.09,-0.52,0.935,0,,,,
53155,20100912,-112.34,35.76,0.069,-0.54,0.917,0,0.11,-0.38,0.952,0,,,,,,,,,,,,,0.089,-0.53,0.946,0,,,,
53155,20100913,-112.34,35.76,0.068,-0.55,0.964,0,0.109,-0.39,0.988,0,,,,,,,,,,,,,0.088,-0.54,0.988,0,,,,
53155,20100914,-112.34,35.76,0.067,-0.56,0.994,0,0.108,-0.4,1,0,,,,,,,,,,,,,0.087,-0.55,1,0,,,,
53155,20100915,-112.34,35.76,0.068,-0.53,0.952,0,0.107,-0.4,1,0,,,,,,,,,,,,,0.087,-0.53,1,0,,,,
53155,20100916,-112.34,35.76,0.068,-0.51,0.899,0,0.107,-0.4,1,0,,,,,,,,,,,,,0.087,-0.52,0.994,0,,,,
53155,20100917,-112.34,35.76,0.068,-0.5,0.839,0,0.107,-0.39,1,0,,,,,,,,,,,,,0.087,-0.51,0.988,0,,,,
53155,20100918,-112.34,35.76,0.067,-0.49,0.768,0,0.107,-0.39,1,0,,,,,,,,,,,,,0.087,-0.5,0.982,0,,,,
53155,20100919,-112.34,35.76,0.066,-0.48,0.714,0,0.106,-0.39,1,0,,,,,,,,,,,,,0.086,-0.49,0.976,0,,,,
53155,20100920,-112.34,35.76,0.065,-0.48,0.661,0,0.106,-0.4,1,0,,,,,,,,,,,,,0.085,-0.49,0.976,0,,,,
53155,20100921,-112.34,35.76,0.065,-0.47,0.613,0,0.105,-0.41,1,0,,,,,,,,,,,,,0.085,-0.49,0.976,0,,,,
53155,20100922,-112.34,35.76,0.064,-0.47,0.595,0,0.104,-0.43,1,0,,,,,,,,,,,,,0.084,-0.49,0.976,0,,,,
53155,20100923,-112.34,35.76,0.063,-0.47,0.625,0,0.103,-0.45,1,0,,,,,,,,,,,,,0.083,-0.49,0.982,0,,,,
53155,20100924,-112.34,35.76,0.06,-0.5,0.685,0,0.102,-0.48,1,0,,,,,,,,,,,,,0.081,-0.52,0.988,0,,,,
53155,20100925,-112.34,35.76,0.058,-0.53,0.744,0,0.1,-0.5,1,0,,,,,,,,,,,,,0.079,-0.55,0.994,0,,,,
53155,20100926,-112.34,35.76,0.058,-0.52,0.762,0,0.099,-0.52,1,0,,,,,,,,,,,,,0.079,-0.55,1,0,,,,
53155,20100927,-112.34,35.76,0.058,-0.52,0.786,0,0.099,-0.54,1,0,,,,,,,,,,,,,0.078,-0.56,1,0,,,,
53155,20100928,-112.34,35.76,0.057,-0.52,0.821,0,0.098,-0.55,1,0,,,,,,,,,,,,,0.078,-0.57,1,0,,,,
53155,20100929,-112.34,35.76,0.057,-0.53,0.869,0,0.098,-0.55,1,0,,,,,,,,,,,,,0.077,-0.58,1,0,,,,
53155,20100930,-112.34,35.76,0.056,-0.54,0.887,0,0.097,-0.56,1,0,,,,,,,,,,,,,0.077,-0.59,1,0,,,,
53155,20101001,-112.34,35.76,0.057,-0.52,0.887,0,0.097,-0.56,1,0,,,,,,,,,,,,,0.077,-0.59,1,0,,,,
53155,20101002,-112.34,35.76,0.057,-0.53,0.899,0,0.097,-0.56,1,0,,,,,,,,,,,,,0.077,-0.59,1,0,,,,
53155,20101003,-112.34,35.76,0.056,-0.54,0.935,0,0.096,-0.58,1,0,,,,,,,,,,,,,0.076,-0.61,1,0,,,,
53155,20101004,-112.34,35.76,0.054,-0.58,0.964,0,0.095,-0.6,1,0,,,,,,,,,,,,,0.075,-0.65,1,0,,,,
53155,20101005,-112.34,35.76,0.062,-0.44,0.917,0.06,0.095,-0.59,0.982,0.012,,,,,,,,,,,,,0.079,-0.56,0.94,0.054,,,,
53155,20101006,-112.34,35.76,0.086,-0.05,0.786,0.202,0.112,-0.22,0.839,0.155,,,,,,,,,,,,,0.099,-0.15,0.798,0.196,,,,
53155,20101007,-112.34,35.76,0.109,0.33,0.649,0.345,0.129,0.16,0.696,0.298,,,,,,,,,,,,,0.119,0.26,0.655,0.339,,,,
53155,20101008,-112.34,35.76,0.128,0.65,0.506,0.488,0.144,0.5,0.554,0.44,,,,,,,,,,,,,0.136,0.61,0.512,0.482,,,,
53155,20101009,-112.34,35.76,0.145,0.94,0.363,0.631,0.158,0.8,0.411,0.583,,,,,,,,,,,,,0.152,0.94,0.369,0.625,,,,
53155,20101010,-112.34,35.76,0.161,1.21,0.22,0.774,0.171,1.09,0.268,0.726,,,,,,,,,,,,,0.166,1.23,0.226,0.768,,,,
53155,20101011,-112.34,35.76,0.178,1.48,0.077,0.917,0.184,1.37,0.125,0.869,,,,,,,,,,,,,0.181,1.53,0.083,0.911,,,,
53155,20101012,-112.34,35.76,0.183,1.58,0,1,0.195,1.61,0,1,,,,,,,,,,,,,0.189,1.7,0,1,,,,
53155,20101013,-112.34,35.76,0.173,1.4,0,1,0.189,1.47,0,1,,,,,,,,,,,,,0.181,1.52,0,1,,,,
53155,20101014,-112.34,35.76,0.164,1.24,0,1,0.182,1.32,0,1,,,,,,,,,,,,,0.173,1.35,0,1,,,,
53155,20101015,-112.34,35.76,0.158,1.13,0,1,0.177,1.2,0,1,,,,,,,,,,,,,0.167,1.22,0,1,,,,
53155,20101016,-112.34,35.76,0.153,1.04,0,1,0.173,1.11,0,1,,,,,,,,,,,,,0.163,1.12,0,1,,,,
53155,20101017,-112.34,35.76,0.149,0.97,0,1,0.17,1.03,0,1,,,,,,,,,,,,,0.16,1.04,0,1,,,,
53155,20101018,-112.34,35.76,0.148,0.94,0,1,0.167,0.96,0,1,,,,,,,,,,,,,0.158,0.98,0,1,,,,
53155,20101019,-112.34,35.76,0.152,0.99,0,1,0.166,0.94,0,1,,,,,,,,,,,,,0.159,0.98,0,1,,,,
53155,20101020,-112.34,35.76,0.155,1.01,0,1,0.167,0.94,0,1,,,,,,,,,,,,,0.161,0.98,0,1,,,,
53155,20101021,-112.34,35.76,0.162,1.1,0,1,0.169,0.97,0,1,,,,,,,,,,,,,0.166,1.03,0,1,,,,
53155,20101022,-112.34,35.76,0.171,1.21,0,1,0.176,1.08,0,1,,,,,,,,,,,,,0.173,1.13,0,1,,,,
53155,20101023,-112.34,35.76,0.178,1.3,0,1,0.182,1.19,0,1,,,,,,,,,,,,,0.18,1.22,0,1,,,,
53155,20101024,-112.34,35.76,0.185,1.38,0,1,0.188,1.29,0,1,,,,,,,,,,,,,0.186,1.3,0,1,,,,
53155,20101025,-112.34,35.76,0.188,1.42,0,1,0.193,1.38,0,1,,,,,,,,,,,,,0.19,1.36,0,1,,,,
53155,20101026,-112.34,35.76,0.185,1.37,0,1,0.195,1.42,0,1,,,,,,,,,,,,,0.19,1.34,0,1,,,,
53155,20101027,-112.34,35.76,0.183,1.35,0,1,0.195,1.44,0,1,,,,,,,,,,,,,0.189,1.34,0,1,,,,
53155,20101028,-112.34,35.76,0.177,1.26,0,1,0.194,1.42,0,1,,,,,,,,,,,,,0.185,1.29,0,1,,,,
53155,20101029,-112.34,35.76,0.169,1.16,0,1,0.188,1.34,0,1,,,,,,,,,,,,,0.178,1.2,0,1,,,,
53155,20101030,-112.34,35.76,0.163,1.09,0,1,0.183,1.28,0,1,,,,,,,,,,,,,0.173,1.12,0,1,,,,
53155,20101031,-112.34,35.76,0.158,1.03,0,1,0.179,1.22,0,1,,,,,,,,,,,,,0.168,1.06,0,1,,,,
53155,20101101,-112.34,35.76,0.153,0.99,0,1,0.175,1.16,0,1,,,,,,,,,,,,,0.164,1.01,0,1,,,,
53155,20101102,-112.34,35.76,0.151,0.96,0,1,0.173,1.12,0,1,,,,,,,,,,,,,0.162,0.98,0,1,,,,
53155,20101103,-112.34,35.76,0.149,0.95,0,1,0.171,1.1,0,1,,,,,,,,,,,,,0.16,0.96,0,1,,,,
53155,20101104,-112.34,35.76,0.147,0.94,0,1,0.169,1.07,0,1,,,,,,,,,,,,,0.158,0.94,0,1,,,,
53155,20101105,-112.34,35.76,0.145,0.93,0,1,0.167,1.05,0,1,,,,,,,,,,,,,0.156,0.93,0,1,,,,
53155,20101106,-112.34,35.76,0.143,0.92,0,1,0.165,1.02,0,1,,,,,,,,,,,,,0.154,0.92,0,1,,,,
53155,20101107,-112.34,35.76,0.141,0.91,0,1,0.164,0.99,0,1,,,,,,,,,,,,,0.152,0.9,0,1,,,,
53155,20101108,-112.34,35.76,0.139,0.89,0,1,0.162,0.97,0,1,,,,,,,,,,,,,0.15,0.89,0,1,,,,
53155,20101109,-112.34,35.76,0.136,0.87,0,1,0.16,0.95,0,1,,,,,,,,,,,,,0.148,0.87,0,1,,,,
53155,20101110,-112.34,35.76,0.134,0.84,0,1,0.158,0.9,0,1,,,,,,,,,,,,,0.146,0.84,0,1,,,,
53155,20101111,-112.34,35.76,0.133,0.82,0,1,0.155,0.86,0,1,,,,,,,,,,,,,0.144,0.82,0,1,,,,
53155,20101112,-112.34,35.76,0.132,0.81,0,1,0.153,0.82,0,1,,,,,,,,,,,,,0.142,0.8,0,1,,,,
53155,20101113,-112.34,35.76,0.131,0.8,0,1,0.151,0.78,0,1,,,,,,,,,,,,,0.141,0.78,0,1,,,,
53155,20101114,-112.34,35.76,0.131,0.78,0,1,0.15,0.74,0,1,,,,,,,,,,,,,0.14,0.76,0,1,,,,
53155,20101115,-112.34,35.76,0.13,0.76,0,1,0.148,0.72,0,1,,,,,,,,,,,,,0.139,0.74,0,1,,,,
53155,20101116,-112.34,35.76,0.13,0.74,0,1,0.147,0.7,0,1,,,,,,,,,,,,,0.139,0.73,0,1,,,,
53155,20101117,-112.34,35.76,0.129,0.72,0,1,0.147,0.68,0,1,,,,,,,,,,,,,0.138,0.71,0,1,,,,
53155,20101118,-112.34,35.76,0.128,0.68,0,1,0.147,0.67,0,1,,,,,,,,,,,,,0.137,0.68,0,1,,,,
53155,20101119,-112.34,35.76,0.126,0.64,0,1,0.147,0.65,0,1,,,,,,,,,,,,,0.137,0.64,0,1,,,,
53155,20101120,-112.34,35.76,0.124,0.58,0,1,0.146,0.63,0,0.994,,,,,,,,,,,,,0.135,0.6,0,1,,,,
53155,20101121,-112.34,35.76,0.123,0.53,0,0.952,0.146,0.6,0,0.994,,,,,,,,,,,,,0.135,0.55,0,0.994,,,,
53155,20101122,-112.34,35.76,0.121,0.46,0,0.815,0.146,0.56,0,0.929,,,,,,,,,,,,,0.133,0.49,0,0.875,,,,
53155,20101123,-112.34,35.76,0.121,0.4,0,0.701,0.145,0.51,0,0.786,,,,,,,,,,,,,0.133,0.43,0,0.76,,,,
53155,20101124,-112.34,35.76,0.121,0.36,0,0.625,0.144,0.46,0,0.643,,,,,,,,,,,,,0.132,0.38,0,0.663,,,,
53155,20101125,-112.34,35.76,0.122,0.33,0,0.542,0.143,0.41,0,0.5,,,,,,,,,,,,,0.132,0.33,0,0.548,,,,
53155,20101126,-112.34,35.76,0.122,0.29,0,0.453,0.14,0.35,0,0.361,,,,,,,,,,,,,0.132,0.29,0,0.453,,,,
53155,20101127,-112.34,35.76,,,,,0.138,0.31,0,0.236,,,,,,,,,,,,,,,,,,,,
53155,20101128,-112.34,35.76,,,,,0.136,0.26,0,0.083,,,,,,,,,,,,,,,,,,,,
53155,20101129,-112.34,35.76,,,,,0.135,0.23,0,0,,,,,,,,,,,,,,,,,,,,
53155,20101130,-112.34,35.76,,,,,0.133,0.17,0,0,,,,,,,,,,,,,,,,,,,,
53155,20101201,-112.34,35.76,,,,,0.132,0.12,0,0,,,,,,,,,,,,,,,,,,,,
53155,20101202,-112.34,35.76,,,,,,,,,,,,,,,,,,,,,,,,,,,,
53155,20101203,-112.34,35.76,,,,,,,,,,,,,,,,,,,,,,,,,,,,
53155,20101204,-112.34,35.76,,,,,0.135,0.07,0,0,,,,,,,,,,,,,,,,,,,,
53155,20101205,-112.34,35.76,,,,,0.136,0.05,0,0,,,,,,,,,,,,,,,,,,,,
53155,20101206,-112.34,35.76,,,,,0.136,0.03,0,0,,,,,,,,,,,,,,,,,,,,
53155,20101207,-112.34,35.76,0.125,0.06,0,0.05,0.139,0.05,0,0,,,,,,,,,,,,,,,,,,,,
53155,20101208,-112.34,35.76,0.125,0.05,0,0.051,0.14,0.06,0,0,,,,,,,,,,,,,0.133,0.02,0,0.026,,,,
53155,20101209,-112.34,35.76,0.123,0.02,0.006,0.037,0.14,0.05,0,0,,,,,,,,,,,,,0.132,0,0,0.012,,,,
53155,20101210,-112.34,35.76,0.122,-0.01,0.024,0.036,0.14,0.04,0,0,,,,,,,,,,,,,0.131,-0.03,0.006,0.012,,,,
53155,20101211,-112.34,35.76,0.121,-0.04,0.048,0.048,0.14,0.03,0,0,,,,,,,,,,,,,0.131,-0.05,0.018,0.012,,,,
53155,20101212,-112.34,35.76,0.12,-0.06,0.077,0.06,0.14,0.02,0,0,,,,,,,,,,,,,0.13,-0.07,0.048,0.012,,,,
53155,20101213,-112.34,35.76,0.12,-0.08,0.107,0.065,0.139,0.01,0,0,,,,,,,,,,,,,0.129,-0.09,0.077,0.012,,,,
53155,20101214,-112.34,35.76,0.119,-0.1,0.149,0.065,0.139,-0.01,0,0,,,,,,,,,,,,,0.129,-0.11,0.119,0.012,,,,
53155,20101215,-112.34,35.76,0.118,-0.13,0.196,0.048,0.139,-0.01,0,0,,,,,,,,,,,,,0.128,-0.14,0.161,0.006,,,,
53155,20101216,-112.34,35.76,0.116,-0.16,0.246,0.03,0.139,-0.01,0,0,,,,,,,,,,,,,0.127,-0.16,0.216,0,,,,
53155,20101217,-112.34,35.76,0.115,-0.19,0.297,0.03,0.138,-0.02,0,0,,,,,,,,,,,,,0.127,-0.18,0.261,0,,,,